THOR ABLESTAR DEB, 144

Orbit data source: Space-Track

THOR ABLESTAR DEB, 144 is space debris in LEO originally from a launch on Thu, 29 Jun 1961 UTC launched from the Air Force Eastern Test Range (AFETR). Debris objects in space refer to the collection of defunct objects orbiting the Earth. Examples of debris include non-operational satellites, rocket bodies, and fragments generated from explosions, collisions, or faulty payload assembly.

Loading next visibility...
Identifier
144, 1961-015AE
Orbit
LEO
Country
Flag of USUS
Related business
Manufacturer
Unknown
Mission
Spacecraft
Bus & Motor
Unknown
Mass
Unknown
Launch date (UTC)
1961-06-29 (65 years ago)
Launch vehicle
Unknown
Launch site
Air Force Eastern Test Range (AFETR)
Object type
Payload
Rocket body
Debris
Shape & HBR
Unknown shape, 0.2 m
Radar Cross Section
Small (<0.1 m²)

Expand to show TLE details & history
Last TLE update: 14 hours ago

TLE from 14 hours ago
0 THOR ABLESTAR DEB
1 00144U 61015AE  26123.38761477  .00000214  00000-0  22969-3 0  9997
2 00144  66.4972 138.9342 0039125  16.7663 343.4697 13.91656153278412
Epoch: 2026-05-03T09:18Z
TLE epoch observation values (Epoch: 2026-05-03T09:18:09.916Z)
Latitude
0.00002°
Longitude
138.101°
Altitude
897.508 km
Speed
7.418 km/s
True Right ascension
09h 15m 44s
True Declination
0° 00' 00"
Sunlit
Object was in daylight at epoch
Visualization orbit readout
Latitude
Unknown
Longitude
Unknown
Altitude
Unknown
Speed
Unknown
Apparent Right ascension
Unknown
Apparent Declination
Unknown
Sunlit
N/A
Visualization observer readout
Local Sidereal Time
06:36:09
Azimuth
Unknown
Elevation
Unknown
Doppler factor
Unknown
Orbital elements
Apogee altitude
949.819 km
Perigee altitude
892.701 km
Semi-major axis
7,299.397 km
Eccentricity
0.00391
Inclination
66.4972°
RAAN
138.9342°
Arg. of periapsis
16.7663°
True anomaly
343.34154°
Mean anomaly
343.4697°
Eccentric anomaly
343.40568°
Mean motion
3.48027 °/min
Orbital period
103.44 mins
BSTAR
0.00022969
Loading maneuver chart data...
Computing Atmospheric mass density...
Loading historical data...
Loading historical data...
Loading historical data...
Loading historical data...
Loading historical data...
Loading historical data...
Loading historical data...

Documentation

Showing up to 5 results
|